Ministro Victor Konder International Airport
SBNF : now visible

Airfield :











YOU CAN JOIN US ON...

 
LOGIN :

Register | Disclaimer

   EN    FR    IT 

 









Legend :    VFR   Marginal VFR   IFR   Intensive IFR   Very Intensive IFR
Visi :
Ceiling :
>= 8 km
>= 3000ft
5 to 8 km
1000 to 3000 ft
1500m to 5 km
500 to 1000 ft
800 to 1500m
200 to 500 ft
< 800m
< 200 ft
Symbols :   Thunderstorms  Fog  Heavy snow  Heavy precipitations  Wind > 20 kt






- Airport Elevation : 18 ft
- IATA code : NVT


SBNF - Ministro Victor Konder International

CURRENT METAR :
  • 241800Z 06009KT 9999 BKN035 24/21 Q1011

EXPIRED METARs :
  • 241700Z 06010KT 9999 SCT030 BKN050 24/21 Q1011
  • 241600Z 06011KT 9999 FEW025 SCT035 BKN050 24/20 Q1013

TAF TAF SBNF
Valid from the 24 at 12:00 until the 25 at 12:00 UTC


240900Z 2412/2512 06008KT 8000 SCT012 FEW025TCU TX25/2417Z TN21/2509Z
BECMG 2418/2420 BKN012
PROB30 2500/2506 27002KT 5000 BR BKN010
BECMG 2509/2511 10003KT 8000 BKN015 RMK PAY
SBCW FIR / South America



MET'MAP, your aeronautical weather chart ! - Copyright ORBIFLY December 2007 - Disclaimer

ORBIFLY MET'MAP TEAM :

Programming & Development : Alexandra Zaïnal
Concept & original design : Baudouin d'Aumeries
Assistance for programming : Marc-Olivier Méhu
Technical & hardware support : Manuel Goepfert

Contact : metmap@orbifly.com




SOURCES & CREDITS :

   NOAA       Earth
Advisory